User: anonymous   Login
Location: Unspecified
(0.0000°N, 0.0000°E)
Time: 13:46:41
(UTC+00:00)
Language:

Jikiken - Orbit

View from above orbital plane
View from above orbital plane
View from above satellite
View from above satellite

Ground track
Ground track

The orbit data is extracted from the following two-line orbital elements,

1 11027U 78087A   17114.92365489 +.00528922 -29699-6 +47682-3 0  9991
2 11027 031.0955 090.8493 3226073 008.8526 355.7250 09.18141243435902
Epoch (UTC): 24 April 2017 22:10:03
Eccentricity: 0.3226073
inclination: 31.0955°
perigee height: 148 km
apogee height: 6363 km
right ascension of ascending node: 90.8493°
argument of perigee: 8.8526°
revolutions per day: 9.18141243
mean anomaly at epoch: 355.7250°
orbit number at epoch: 43590

The dashed part of the orbit path shows where the satellite is in the earth's shadow,  

DLR